Regional Weather Roundup
Issued by NWS

Home | Current Version | Previous Version | Graphics & Text | Print | Product List | Glossary On
Versions: 1 2 3 4 5 6 7 8 9 10 11 12 13 14 15 16 17 18 19 20 21 22 23 24 25 26 27
000
ASUS45 KBOI 230810
RWRID

IDAHO REGIONAL WEATHER ROUNDUP
NATIONAL WEATHER SERVICE BOISE ID
200 AM MDT TUE AUG 23 2016

NOTE: "FAIR" INDICATES FEW OR NO CLOUDS BELOW 12000 FEET
WITH NO SIGNIFICANT WEATHER AND/OR OBSTRUCTIONS TO VISIBILITY

IDZ012-014-230900-
SOUTHWEST IDAHO


CITY           SKY/WX    TMP DP  RH WIND       PRES   REMARKS
BOISE          CLEAR     62  30  29 W8        29.98R
CALDWELL       CLEAR     59  34  39 W9        29.99R
MOUNTAIN HOME  PTCLDY    60  31  33 W9        29.98R
$$

IDZ016-017-230900-
SOUTHCENTRAL IDAHO


CITY           SKY/WX    TMP DP  RH WIND       PRES   REMARKS
BURLEY         CLEAR     51  37  58 SW7       29.99S
JEROME         CLEAR     63  27  25 S6        30.01R
TWIN FALLS     CLEAR     60  24  25 S13       30.01R
$$

IDZ019>023-230900-
SOUTHEAST IDAHO


CITY           SKY/WX    TMP DP  RH WIND       PRES   REMARKS
IDAHO FALLS    CLOUDY    56  26  31 SW13      30.01R
POCATELLO      CLEAR     65  17  15 SW10      30.02R
REXBURG        CLOUDY    57  27  31 SW9       30.00R
$$

IDZ006-010-011-018-031-032-230900-
CENTRAL IDAHO MOUNTAINS


CITY           SKY/WX    TMP DP  RH WIND       PRES   REMARKS
MCCALL         PTCLDY    52  26  36 N6        30.08S
HAILEY         PTCLDY    55  19  24 N5        30.07R
STANLEY          N/A     36  14  40 CALM      30.15R
SALMON         CLEAR     54  28  37 CALM      30.03R
CHALLIS        CLEAR     50  15  24 CALM      30.04R
$$

IDZ002-004-006-007-026-230900-
NORTHERN IDAHO


CITY           SKY/WX    TMP DP  RH WIND       PRES   REMARKS
LEWISTON       CLEAR     60  32  34 S7        30.02R
LOWELL           N/A     52  42  69 NW5       30.07R
COEUR D`ALENE  PTCLDY    57   1  10 CALM      30.00R
MULLAN PASS    MOCLDY    46  28  49 VRB5      30.09S
$$




USA.gov is the U.S. government's official web portal to all federal, state and local government web resources and services.